SCP
2 2 1 0 0 0 0 0 0 0 0 0 0 0 0 -0 0 0 0 0 0 0
2 1 1 1 0 0 0 0 0 0 0 0 0 0 0 -0 -0 0 0 -0 0 0
2 2 1 1 0 0 0 0 0 0 0 0 0 0 0 0 0 0 0 0 0 0
2 2 1 1 1 1 1 0 0 0 0 0 0 0 0 0 0 0 0 0 0 0
2 2 2 2 1 2 1 1 1 1 1 0 0 0 0 0 0 0 0 0 0 0
2 3 3 2 2 2 2 1 1 1 1 0 0 0 0 0 0 0 0 0 0 0
1 1 0 0 2 2 2 2 1 1 1 0 0 0 0 0 0 0 0 0 0 0
0 0 0 0 0 0 0 1 1 1 1 1 1 1 0 0 0 0 0 0 0 0
0 0 0 0 0 0 0 0 0 0 0 0 1 0 0 1 0 0 0 0 0 0
0 0 0 0 0 0 0 -0 0 0 0 0 0 0 0 0 0 0 0 0 0 0
0 0 0 0 0 0 -0 -0 -0 0 0 0 0 0 0 0 0 0 0 0 0 0
0 0 0 0 0 0 0 0 0 0 0 0 0 0 0 0 0 0 0 0 0 0
0 0 0 0 0 0 0 0 0 0 0 0 0 0 0 0 0 0 0 0 0 0
0 0 0 0 0 0 0 0 0 0 0 0 0 0 0 0 0 0 0 0 0 0
Wind_Speed_500mb
99 96 94 87 79 77 75 73 68 69 68 64 62 59 55 52 44 54 63 61 61 61
98 95 95 90 80 74 68 64 60 52 54 57 53 55 58 57 48 46 55 65 64 59
91 87 89 93 87 82 71 66 62 55 49 50 51 53 60 58 51 47 46 44 48 52
76 74 81 94 95 85 77 68 64 57 52 48 50 51 50 53 50 47 44 42 46 48
67 65 71 79 93 87 81 73 63 60 58 56 53 50 48 45 46 48 45 41 42 42
38 54 72 68 83 86 79 79 74 70 65 58 55 53 45 44 42 41 39 37 38 41
22 53 64 66 62 71 73 79 84 75 68 61 56 52 44 40 41 39 37 37 33 39
13 29 40 56 57 46 57 73 85 85 78 66 60 56 42 38 41 39 37 37 35 35
23 8 31 37 42 40 31 43 90 83 91 84 66 58 50 40 39 44 43 38 38 35
17 35 37 57 61 30 60 64 68 72 75 76 61 48 50 47 41 42 47 40 37 34
3 9 16 28 35 51 66 88 67 53 57 70 83 84 80 55 45 44 47 43 30 29
6 2 7 10 29 37 32 27 35 44 54 64 81 85 82 64 59 51 47 48 39 32
14 11 9 8 19 27 30 31 27 18 33 71 64 67 55 60 61 57 52 51 51 48
31 26 26 21 13 6 20 21 26 28 22 20 41 59 56 52 50 46 46 58 51 55
Wind_Direction_500mb
232 240 244 248 248 245 242 240 240 240 241 246 253 255 255 262 256 239 243 249 253 255
240 237 243 247 250 247 244 243 237 238 239 245 254 262 253 256 254 251 252 253 252 256
237 238 242 246 245 246 242 239 238 237 242 248 255 261 257 262 260 249 250 244 245 251
239 239 241 245 246 245 243 237 238 239 242 249 256 256 256 256 250 248 246 250 251 253
233 238 242 246 248 245 242 239 235 240 242 248 254 256 258 251 244 246 246 247 250 253
230 240 245 246 248 249 244 238 236 234 239 242 246 253 254 250 246 244 246 250 252 257
213 224 232 237 238 247 248 240 237 238 236 232 237 241 250 248 243 242 247 252 256 264
25 245 229 234 223 233 241 248 240 238 237 228 228 226 227 248 252 249 252 256 258 260
80 205 277 266 263 276 302 311 244 237 237 233 231 229 220 224 245 254 253 257 258 255
134 243 246 257 258 283 252 282 252 231 229 231 230 236 238 243 240 250 254 255 257 252
194 259 250 235 230 225 234 242 239 232 232 222 220 218 236 240 234 236 249 251 254 253
83 138 135 174 214 223 234 245 240 244 241 233 221 223 227 238 238 245 243 248 246 248
74 75 127 205 222 232 237 232 219 229 240 232 230 228 231 225 228 239 235 241 246 243
75 76 71 57 44 249 234 235 240 234 237 227 225 229 235 226 235 241 252 246 235 233
Wind_Speed_850mb
99 96 94 87 79 77 75 73 68 69 68 64 62 59 55 52 44 54 63 61 61 61
98 95 95 90 80 74 68 64 60 52 54 57 53 55 58 57 48 46 55 65 64 59
91 87 89 93 87 82 71 66 62 55 49 50 51 53 60 58 51 47 46 44 48 52
76 74 81 94 95 85 77 68 64 57 52 48 50 51 50 53 50 47 44 42 46 48
67 65 71 79 93 87 81 73 63 60 58 56 53 50 48 45 46 48 45 41 42 42
38 54 72 68 83 86 79 79 74 70 65 58 55 53 45 44 42 41 39 37 38 41
22 53 64 66 62 71 73 79 84 75 68 61 56 52 44 40 41 39 37 37 33 39
13 29 40 56 57 46 57 73 85 85 78 66 60 56 42 38 41 39 37 37 35 35
23 8 31 37 42 40 31 43 90 83 91 84 66 58 50 40 39 44 43 38 38 35
17 35 37 57 61 30 60 64 68 72 75 76 61 48 50 47 41 42 47 40 37 34
3 9 16 28 35 51 66 88 67 53 57 70 83 84 80 55 45 44 47 43 30 29
6 2 7 10 29 37 32 27 35 44 54 64 81 85 82 64 59 51 47 48 39 32
14 11 9 8 19 27 30 31 27 18 33 71 64 67 55 60 61 57 52 51 51 48
31 26 26 21 13 6 20 21 26 28 22 20 41 59 56 52 50 46 46 58 51 55
Wind_Direction_850mb
232 240 244 248 248 245 242 240 240 240 241 246 253 255 255 262 256 239 243 249 253 255
240 237 243 247 250 247 244 243 237 238 239 245 254 262 253 256 254 251 252 253 252 256
237 238 242 246 245 246 242 239 238 237 242 248 255 261 257 262 260 249 250 244 245 251
239 239 241 245 246 245 243 237 238 239 242 249 256 256 256 256 250 248 246 250 251 253
233 238 242 246 248 245 242 239 235 240 242 248 254 256 258 251 244 246 246 247 250 253
230 240 245 246 248 249 244 238 236 234 239 242 246 253 254 250 246 244 246 250 252 257
213 224 232 237 238 247 248 240 237 238 236 232 237 241 250 248 243 242 247 252 256 264
25 245 229 234 223 233 241 248 240 238 237 228 228 226 227 248 252 249 252 256 258 260
80 205 277 266 263 276 302 311 244 237 237 233 231 229 220 224 245 254 253 257 258 255
134 243 246 257 258 283 252 282 252 231 229 231 230 236 238 243 240 250 254 255 257 252
194 259 250 235 230 225 234 242 239 232 232 222 220 218 236 240 234 236 249 251 254 253
83 138 135 174 214 223 234 245 240 244 241 233 221 223 227 238 238 245 243 248 246 248
74 75 127 205 222 232 237 232 219 229 240 232 230 228 231 225 228 239 235 241 246 243
75 76 71 57 44 249 234 235 240 234 237 227 225 229 235 226 235 241 252 246 235 233